DW1779 Weather Reports


time (UTC)temp
F
wind
direction
speed
knots
gust
knots
rain 1hr
in
rain 24hr
in
rain mn
in
humidity
%
barometer
mb
20260507053544 39 360 0.0 0.0 0.00 0.00 0.00 94 1018.3
20260507053044 39 360 0.0 0.0 0.00 0.00 0.00 94 1018.4
20260507052545 39 360 0.0 0.0 0.00 0.00 0.00 94 1018.2
20260507052041 39 360 0.0 0.0 0.00 0.00 0.00 94 1018.3
20260507051540 39 355 0.0 0.0 0.00 0.00 0.00 94 1018.2
20260507051040 39 355 0.0 0.0 0.00 0.00 0.00 94 1018.1
20260507050503 39 355 0.0 0.0 0.00 0.00 0.00 94 1018.1
20260507050007 39 355 0.0 0.0 0.00 0.02 0.00 94 1018.2
20260507045501 40 355 0.0 0.0 0.00 0.02 0.00 94 1018.2
20260507045001 40 355 0.0 0.0 0.00 0.02 0.00 94 1018.3
20260507044500 40 355 0.0 0.0 0.00 0.02 0.00 94 1018.3
20260507044100 40 355 0.0 0.0 0.00 0.02 0.00 94 1018.2
20260507043558 40 355 0.0 0.0 0.00 0.02 0.00 94 1018.2
20260507043102 40 355 0.0 0.0 0.00 0.02 0.00 94 1018.2
20260507042557 40 355 0.0 0.0 0.00 0.02 0.00 94 1018.1
20260507042056 41 355 0.0 0.0 0.00 0.02 0.00 94 1017.9
20260507041605 41 355 0.0 0.0 0.00 0.02 0.00 94 1018.1
20260507041055 41 355 0.0 0.0 0.00 0.02 0.00 94 1018.1
20260507040655 41 355 0.0 0.0 0.00 0.02 0.00 94 1018.1
20260507040059 41 355 0.0 0.0 0.00 0.02 0.00 94 1017.9
20260507035557 42 355 0.0 0.0 0.00 0.02 0.00 94 1018.0
20260507035056 42 355 0.0 0.0 0.00 0.02 0.00 94 1017.9
20260507034605 42 355 0.0 0.0 0.00 0.02 0.00 94 1017.9
20260507034055 42 355 0.0 0.0 0.00 0.02 0.00 93 1017.9
20260507033554 42 355 0.0 0.0 0.00 0.02 0.00 94 1017.9
20260507033055 42 355 0.0 0.0 0.00 0.02 0.00 93 1017.9
20260507032554 43 355 0.0 0.0 0.00 0.02 0.00 93 1017.9
20260507032053 43 355 0.0 0.0 0.00 0.02 0.00 93 1017.9
20260507031555 43 355 0.0 0.0 0.00 0.02 0.00 93 1017.9
20260507031057 43 355 0.0 0.0 0.00 0.02 0.00 93 1017.9
20260507030654 43 355 0.0 0.9 0.00 0.02 0.00 93 1017.9
20260507030057 43 355 0.0 0.0 0.00 0.02 0.00 92 1018.0
20260507025550 44 355 0.0 0.0 0.00 0.06 0.00 92 1017.9
20260507025049 44 355 0.0 0.0 0.00 0.06 0.00 92 1017.9
20260507024549 44 355 0.0 0.9 0.00 0.06 0.00 92 1017.8
20260507024049 44 355 0.0 0.9 0.00 0.06 0.00 92 1017.8
20260507023548 45 355 0.0 0.0 0.00 0.06 0.00 91 1017.7
20260507023103 45 355 0.0 0.0 0.00 0.06 0.00 91 1017.6
20260507022548 45 355 0.0 0.0 0.00 0.06 0.00 90 1017.6
20260507022049 46 355 0.0 0.0 0.00 0.06 0.00 90 1017.7
20260507021552 46 355 0.0 0.0 0.00 0.06 0.00 89 1017.6
20260507021049 47 355 0.0 0.0 0.00 0.06 0.00 89 1017.4
20260507020649 47 355 0.0 0.0 0.00 0.06 0.00 88 1017.4
20260507020047 47 355 0.0 0.0 0.00 0.06 0.00 88 1017.3
20260507015546 48 355 0.0 0.0 0.00 0.15 0.00 87 1017.1
20260507015047 48 355 0.0 0.0 0.00 0.15 0.00 87 1016.9
20260507014558 48 355 0.0 0.0 0.00 0.15 0.00 86 1016.9
20260507014047 48 355 0.0 0.0 0.00 0.15 0.00 85 1016.9
20260507013545 48 355 0.0 0.0 0.00 0.15 0.00 85 1017.0
20260507013103 49 355 0.0 0.0 0.00 0.15 0.00 84 1016.8
20260507012545 49 355 0.0 0.0 0.00 0.15 0.00 83 1016.9
20260507012045 49 355 0.0 0.0 0.00 0.15 0.00 82 1016.7
20260507011546 50 355 0.0 0.0 0.00 0.15 0.00 81 1016.6
20260507011045 50 355 0.0 0.0 0.00 0.15 0.00 79 1016.7
20260507010645 50 355 0.0 0.0 0.00 0.15 0.00 79 1016.8
20260507010044 51 355 0.0 0.9 0.00 0.15 0.00 75 1016.7
20260507005543 51 355 0.0 0.9 0.00 0.22 0.00 71 1016.8
20260507005044 52 355 0.0 1.7 0.00 0.22 0.00 69 1016.6
20260507004543 52 360 0.0 1.7 0.00 0.22 0.00 67 1016.4
20260507004044 53 341 0.0 1.7 0.00 0.22 0.00 65 1016.4
20260507003543 54 344 0.0 3.5 0.00 0.22 0.00 65 1016.4
20260507003042 54 355 0.9 3.5 0.00 0.22 0.00 63 1016.4
20260507002542 55 34 0.9 5.2 0.00 0.22 0.00 63 1016.4
20260507002042 55 348 2.6 5.2 0.00 0.22 0.00 61 1016.3
20260507001555 56 344 0.9 7.0 0.00 0.22 0.00 61 1016.1
20260507001045 56 331 1.7 7.0 0.00 0.22 0.00 57 1016.0
20260507000641 57 9 2.6 7.0 0.00 0.22 0.00 57 1016.0
20260507000042 57 351 1.7 8.7 0.00 0.22 0.00 58 1015.9
20260506235544 57 292 2.6 8.7 0.00 0.25 0.00 55 1015.7
20260506235041 57 355 1.7 10.4 0.00 0.25 0.00 58 1015.7
20260506234541 58 294 2.6 10.4 0.00 0.25 0.00 56 1015.7
20260506234043 58 9 3.5 10.4 0.00 0.25 0.00 57 1015.7
20260506233542 58 329 2.6 12.2 0.00 0.25 0.00 54 1015.7
20260506233045 58 338 2.6 12.2 0.00 0.25 0.00 53 1015.7
20260506232543 58 26 0.9 8.7 0.00 0.25 0.00 57 1015.6
20260506232039 58 5 1.7 8.7 0.00 0.25 0.00 58 1015.7
20260506231544 58 18 2.6 12.2 0.00 0.25 0.00 55 1015.7
20260506231039 58 15 3.5 12.2 0.00 0.25 0.00 54 1015.8
20260506230638 58 341 3.5 8.7 0.00 0.25 0.00 53 1016.0
20260506230051 59 300 4.3 8.7 0.00 0.25 0.00 54 1016.0
20260506225553 59 284 1.7 8.7 0.00 0.28 0.00 55 1016.0
20260506225051 59 19 3.5 12.2 0.00 0.28 0.00 54 1016.0
20260506224551 59 299 2.6 12.2 0.00 0.28 0.00 55 1015.9
20260506224051 59 11 4.3 9.6 0.00 0.28 0.00 54 1015.8
20260506223550 59 317 1.7 7.8 0.00 0.28 0.00 53 1015.8
20260506223104 59 302 3.5 8.7 0.00 0.28 0.00 53 1016.0
20260506222550 59 318 3.5 8.7 0.00 0.28 0.00 53 1016.0
20260506222052 59 5 1.7 7.8 0.00 0.28 0.00 53 1015.8
20260506221549 59 118 2.6 7.8 0.00 0.28 0.00 52 1016.0
20260506221049 59 355 3.5 7.8 0.00 0.28 0.00 55 1015.9
20260506220650 59 355 2.6 11.3 0.00 0.28 0.00 55 1015.9
20260506220051 59 346 3.5 11.3 0.00 0.28 0.00 54 1015.9
20260506215552 58 345 2.6 8.7 0.00 0.28 0.00 56 1015.8
20260506215051 59 348 2.6 7.8 0.00 0.28 0.00 54 1016.0
20260506214555 59 299 3.5 8.7 0.00 0.28 0.00 56 1016.0
20260506214052 58 292 2.6 10.4 0.00 0.28 0.00 59 1016.2
20260506213550 59 19 4.3 10.4 0.00 0.28 0.00 52 1016.3
20260506213049 60 339 2.6 7.0 0.00 0.28 0.00 56 1016.3
20260506212548 59 355 1.7 7.8 0.00 0.28 0.00 56 1016.4
20260506212049 59 341 1.7 10.4 0.00 0.28 0.00 59 1016.3
20260506211547 59 315 5.2 10.4 0.00 0.28 0.00 58 1016.4
20260506211047 59 326 2.6 9.6 0.00 0.28 0.00 57 1016.4
20260506210648 59 313 2.6 8.7 0.00 0.28 0.00 55 1016.4
20260506210050 58 42 1.7 8.7 0.00 0.28 0.00 57 1016.6
20260506205550 58 279 3.5 7.8 0.00 0.28 0.00 58 1016.7
20260506205049 57 288 2.6 7.8 0.00 0.28 0.00 60 1016.7
20260506204549 58 315 2.6 7.8 0.00 0.28 0.00 58 1016.8
20260506204048 59 252 0.9 8.7 0.00 0.28 0.00 57 1016.8
20260506203546 60 15 3.5 8.7 0.00 0.28 0.00 60 1016.8
20260506203048 59 311 3.5 7.8 0.00 0.28 0.00 60 1017.0
20260506202548 57 328 1.7 7.0 0.00 0.28 0.00 63 1017.0
20260506202045 57 306 1.7 9.6 0.00 0.28 0.00 61 1017.0
20260506201545 57 27 3.5 9.6 0.00 0.28 0.00 60 1017.1
20260506201047 57 328 2.6 10.4 0.00 0.28 0.00 61 1017.1
20260506200644 58 307 1.7 10.4 0.00 0.28 0.00 56 1017.2
20260506200117 59 302 1.7 5.2 0.00 0.28 0.00 64 1017.2
20260506195544 58 337 1.7 7.0 0.00 0.28 0.00 65 1017.2
20260506195046 58 5 2.6 8.7 0.00 0.28 0.00 61 1017.3
20260506194544 57 292 4.3 8.7 0.00 0.28 0.00 62 1017.4
20260506194043 57 327 3.5 8.7 0.00 0.28 0.00 65 1017.4
20260506193545 57 355 1.7 10.4 0.00 0.28 0.00 68 1017.4
20260506193045 57 341 3.5 10.4 0.00 0.28 0.00 64 1017.4
20260506192542 57 345 2.6 10.4 0.00 0.28 0.00 65 1017.4
20260506192042 57 309 4.3 10.4 0.00 0.28 0.00 64 1017.4
20260506191546 57 27 2.6 9.6 0.00 0.28 0.00 65 1017.4
20260506191041 57 309 4.3 8.7 0.00 0.28 0.00 66 1017.5
20260506190642 57 308 2.6 7.8 0.00 0.28 0.00 64 1017.5
20260506190042 56 300 2.6 7.8 0.00 0.28 0.00 61 1017.4
20260506185546 56 326 1.7 7.8 0.00 0.28 0.00 65 1017.5
20260506185044 56 340 0.9 6.1 0.00 0.28 0.00 69 1017.6
20260506184543 56 296 3.5 6.1 0.00 0.28 0.00 64 1017.6
20260506184041 57 338 0.9 10.4 0.00 0.28 0.00 67 1017.6
20260506183541 57 310 5.2 10.4 0.00 0.28 0.00 63 1017.5
20260506183041 58 292 3.5 8.7 0.00 0.28 0.00 65 1017.5
20260506182540 58 275 2.6 7.8 0.00 0.28 0.00 67 1017.4
20260506182040 58 333 2.6 8.7 0.00 0.28 0.00 68 1017.2
20260506181542 56 58 3.5 8.7 0.00 0.28 0.00 62 1017.4
20260506181039 57 329 2.6 7.8 0.00 0.28 0.00 68 1017.5
20260506180515 57 310 2.6 7.8 0.00 0.28 0.00 66 1017.4
20260506180008 58 5 2.6 7.0 0.00 0.28 0.00 65 1017.3
20260506175511 57 299 0.9 5.2 0.00 0.28 0.00 65 1017.2
20260506175008 57 319 1.7 7.8 0.00 0.28 0.00 74 1017.5
20260506174505 56 297 3.5 7.8 0.00 0.28 0.00 69 1017.5
20260506174006 55 355 2.6 7.0 0.00 0.28 0.00 66 1017.6
20260506173503 56 328 2.6 7.0 0.00 0.28 0.00 66 1017.7
20260506173002 56 317 2.6 8.7 0.00 0.28 0.00 66 1017.8
20260506172600 55 321 2.6 8.7 0.00 0.28 0.00 68 1017.9
20260506172058 55 309 2.6 7.8 0.00 0.28 0.00 67 1018.0
20260506171602 55 347 1.7 5.2 0.00 0.28 0.00 70 1017.9
20260506171056 54 336 2.6 5.2 0.00 0.28 0.00 66 1017.9
20260506170655 54 329 0.9 5.2 0.00 0.28 0.00 70 1018.2
20260506170057 54 349 0.0 7.8 0.00 0.28 0.00 70 1018.1
20260506165555 53 36 2.6 7.8 0.00 0.28 0.00 67 1017.9
20260506165056 53 289 2.6 7.0 0.00 0.28 0.00 69 1017.8
20260506164555 53 337 1.7 8.7 0.00 0.28 0.00 68 1017.8
20260506164053 53 67 1.7 8.7 0.00 0.28 0.00 69 1017.9
20260506163553 53 109 2.6 7.0 0.00 0.28 0.00 71 1017.7
20260506163053 53 351 1.7 6.1 0.00 0.28 0.00 74 1017.5
20260506162555 53 339 0.9 4.3 0.00 0.28 0.00 72 1017.4
20260506162053 52 5 1.7 7.0 0.00 0.28 0.00 73 1017.3
20260506161557 52 309 2.6 7.0 0.00 0.28 0.00 72 1017.4
20260506161051 53 342 2.6 7.0 0.00 0.28 0.00 72 1017.4
20260506160650 52 18 2.6 7.8 0.00 0.28 0.00 73 1017.3
20260506160106 52 319 2.6 7.8 0.00 0.28 0.00 73 1017.6
20260506155554 52 341 2.6 7.8 0.00 0.28 0.00 72 1017.5
20260506155054 52 5 3.5 9.6 0.00 0.28 0.00 74 1017.4
20260506154552 52 342 1.7 9.6 0.00 0.28 0.00 76 1017.3
20260506154052 51 278 2.6 11.3 0.00 0.28 0.00 75 1017.2
20260506153552 51 40 3.5 11.3 0.00 0.28 0.00 75 1017.3
20260506153050 51 299 1.7 10.4 0.00 0.28 0.00 76 1017.4
20260506152550 52 338 0.9 10.4 0.00 0.28 0.00 77 1017.2
20260506152050 51 325 3.5 12.2 0.00 0.28 0.00 76 1017.0
20260506151549 52 297 3.5 12.2 0.00 0.28 0.00 80 1017.1
20260506151049 51 337 1.7 8.7 0.00 0.28 0.00 81 1017.0
20260506150649 51 312 2.6 11.3 0.00 0.28 0.00 79 1016.9
20260506150056 52 338 3.5 11.3 0.00 0.28 0.00 79 1016.8
20260506145555 52 334 5.2 11.3 0.00 0.28 0.00 80 1016.7
20260506145051 51 355 2.6 7.0 0.00 0.28 0.00 85 1016.7
20260506144553 50 290 2.6 7.0 0.00 0.28 0.00 85 1016.6
20260506144049 49 311 2.6 7.8 0.00 0.28 0.00 84 1016.7
20260506143551 49 301 2.6 11.3 0.00 0.28 0.00 86 1016.7
20260506143048 49 306 4.3 11.3 0.00 0.28 0.00 85 1016.7
20260506142548 49 355 3.5 8.7 0.00 0.28 0.00 87 1016.5
20260506142047 49 327 3.5 8.7 0.00 0.28 0.00 87 1016.5
20260506141546 49 31 3.5 8.7 0.00 0.28 0.00 90 1016.5
20260506141044 48 304 2.6 7.8 0.00 0.28 0.00 92 1016.5
20260506140643 48 297 1.7 7.0 0.00 0.28 0.00 92 1016.5
20260506140052 47 310 1.7 5.2 0.00 0.28 0.00 93 1016.6
20260506135550 46 316 1.7 5.2 0.00 0.28 0.00 93 1016.7
20260506135049 46 332 1.7 5.2 0.00 0.28 0.00 93 1016.8
20260506134612 46 355 0.9 4.3 0.00 0.28 0.00 94 1017.0
20260506134048 46 325 0.9 4.3 0.00 0.28 0.00 94 1017.1
20260506133545 46 355 1.7 3.5 0.00 0.28 0.00 94 1016.9
20260506133043 45 355 1.7 5.2 0.00 0.28 0.00 94 1016.8
20260506132542 45 311 1.7 3.5 0.00 0.28 0.00 94 1016.7
20260506132042 45 284 0.9 3.5 0.00 0.28 0.00 94 1016.8
20260506131600 45 326 0.9 3.5 0.00 0.28 0.00 94 1016.8
20260506131041 45 297 0.9 2.6 0.00 0.28 0.00 94 1016.9
20260506130641 45 331 0.9 5.2 0.00 0.28 0.00 94 1016.9
20260506130046 45 318 1.7 5.2 0.00 0.28 0.00 95 1016.9
20260506125544 45 311 0.9 6.1 0.00 0.28 0.00 95 1016.9
20260506125043 45 5 1.7 6.1 0.00 0.28 0.00 95 1017.0
20260506124543 44 343 0.9 5.2 0.00 0.28 0.00 95 1016.6
20260506124043 44 336 1.7 7.8 0.00 0.28 0.00 95 1016.9
20260506123541 44 286 1.7 7.8 0.00 0.28 0.00 95 1016.8
20260506123045 44 317 2.6 7.8 0.00 0.28 0.00 95 1016.8
20260506122540 44 298 1.7 7.0 0.00 0.28 0.00 95 1016.3
20260506122039 44 331 2.6 5.2 0.00 0.28 0.00 95 1016.1
20260506121549 44 341 1.7 3.5 0.00 0.28 0.00 95 1016.4
20260506121048 44 307 0.9 4.3 0.00 0.28 0.00 95 1016.4
20260506120648 44 329 1.7 4.3 0.00 0.28 0.00 95 1016.6
20260506120052 44 332 0.9 4.3 0.00 0.28 0.00 95 1016.7
20260506115552 44 285 1.7 5.2 0.00 0.28 0.00 95 1016.3
20260506115051 44 345 0.9 2.6 0.00 0.28 0.00 95 1015.8
20260506114554 44 346 0.9 3.5 0.00 0.28 0.00 95 1016.2
20260506114052 44 313 1.7 3.5 0.00 0.28 0.00 95 1016.5
20260506113550 44 308 0.9 3.5 0.00 0.28 0.00 95 1016.3
20260506113049 44 334 0.0 3.5 0.00 0.28 0.00 95 1016.2
20260506112547 44 329 0.9 2.6 0.00 0.28 0.00 95 1016.0
20260506112047 44 23 0.9 3.5 0.00 0.28 0.00 95 1015.5
20260506111602 44 303 0.9 3.5 0.00 0.28 0.00 95 1015.9
20260506111047 44 311 0.9 3.5 0.00 0.28 0.00 95 1015.9
20260506110650 44 323 0.9 5.2 0.00 0.28 0.00 95 1015.8
20260506110052 44 327 1.7 5.2 0.00 0.28 0.00 95 1015.7
20260506105550 44 37 0.9 1.7 0.00 0.38 0.00 95 1015.4
20260506105050 44 16 0.0 2.6 0.00 0.38 0.00 95 1015.6
20260506104550 44 19 0.9 3.5 0.00 0.38 0.00 95 1015.8
20260506104053 44 338 0.9 6.1 0.00 0.38 0.00 95 1015.9
20260506103548 44 323 0.0 7.0 0.00 0.38 0.00 95 1016.0
20260506103048 44 309 1.7 7.8 0.00 0.38 0.00 95 1016.4
20260506102550 44 302 2.6 7.8 0.00 0.38 0.00 95 1016.1
20260506102049 44 309 0.9 3.5 0.00 0.38 0.00 95 1015.6
20260506101545 44 291 0.9 4.3 0.00 0.38 0.00 95 1015.5
20260506101044 44 320 1.7 4.3 0.00 0.38 0.00 95 1015.4
20260506100643 44 282 0.9 2.6 0.00 0.38 0.00 95 1014.8
20260506100042 43 348 0.0 0.9 0.00 0.38 0.00 95 1014.4
20260506095542 43 5 0.0 1.7 0.00 0.38 0.00 95 1014.1
20260506095045 43 21 0.9 3.5 0.00 0.38 0.00 95 1013.9
20260506094542 43 309 0.9 3.5 0.00 0.38 0.00 95 1013.7
20260506094041 43 13 0.9 3.5 0.00 0.38 0.00 95 1013.7
20260506093542 43 313 0.0 3.5 0.00 0.38 0.00 95 1013.8
20260506093043 43 20 0.0 3.5 0.00 0.38 0.00 95 1013.5
20260506092540 43 355 0.9 3.5 0.00 0.38 0.00 95 1014.0
20260506092044 43 22 0.0 2.6 0.00 0.38 0.00 95 1014.0
20260506091541 43 306 0.9 4.3 0.00 0.38 0.00 95 1014.3
20260506091040 43 317 1.7 4.3 0.00 0.38 0.00 95 1014.1
20260506090501 43 15 0.9 3.5 0.00 0.38 0.00 95 1013.9
20260506090100 43 360 0.0 3.5 0.00 0.38 0.00 95 1014.0
20260506085600 43 23 0.0 0.9 0.00 0.38 0.00 95 1014.0
20260506085059 43 76 0.0 2.6 0.00 0.38 0.00 95 1013.9
20260506084606 43 333 0.0 3.5 0.00 0.38 0.00 95 1014.0
20260506084059 43 309 0.9 5.2 0.00 0.38 0.00 95 1014.0
20260506083600 43 24 1.7 5.2 0.00 0.38 0.00 95 1014.0
20260506083115 43 5 1.7 5.2 0.00 0.38 0.00 95 1014.3
20260506082557 43 331 1.7 7.0 0.00 0.38 0.00 95 1014.6
20260506082057 43 344 2.6 7.0 0.00 0.38 0.00 95 1014.4
20260506081554 43 325 0.9 5.2 0.00 0.38 0.00 95 1014.4
20260506081054 43 344 0.9 5.2 0.00 0.38 0.00 95 1014.3
20260506080654 43 335 0.9 4.3 0.00 0.38 0.00 95 1014.3
20260506073052 43 313 2.6 5.2 0.00 0.38 0.00 95 1013.7
20260506072552 43 336 1.7 7.0 0.00 0.38 0.00 95 1013.7
20260506072051 43 317 1.7 7.0 0.00 0.38 0.00 95 1013.5
20260506071553 43 327 2.6 7.8 0.00 0.38 0.00 95 1013.8
20260506071049 43 327 1.7 7.8 0.00 0.38 0.00 95 1013.7
20260506070651 43 301 1.7 7.0 0.00 0.38 0.00 95 1013.7
20260506070110 43 324 1.7 7.0 0.00 0.38 0.00 95 1014.0
20260506062050 43 301 0.9 3.5 0.00 0.38 0.00 95 1014.3
20260506061546 43 290 0.0 3.5 0.00 0.38 0.00 95 1013.9
20260506061046 43 306 0.9 3.5 0.00 0.38 0.00 95 1013.6
20260506060646 43 313 0.0 5.2 0.00 0.38 0.00 95 1013.3